TimeEDT,TemperatureF,Dew PointF,Humidity,Sea Level PressureIn,VisibilityMPH,Wind Direction,Wind SpeedMPH,Gust SpeedMPH,PrecipitationIn,Events,Conditions,WindDirDegrees,DateUTC
12:56 AM,70.0,64.0,81,29.91,10.0,SSE,11.5,-,N/A,,Overcast,160,2013-06-10 04:56:00
1:56 AM,70.0,64.0,81,29.88,10.0,SSE,11.5,-,N/A,,Overcast,160,2013-06-10 05:56:00
2:56 AM,69.1,64.0,84,29.87,10.0,SSE,11.5,-,0.00,,Mostly Cloudy,160,2013-06-10 06:56:00
3:56 AM,69.1,64.0,84,29.85,10.0,SSE,9.2,-,N/A,,Mostly Cloudy,160,2013-06-10 07:56:00
4:08 AM,69.8,64.4,83,29.86,10.0,SSE,9.2,-,N/A,,Mostly Cloudy,160,2013-06-10 08:08:00
4:56 AM,68.0,64.9,90,29.83,6.0,SSE,9.2,-,0.03,Rain,Rain,150,2013-06-10 08:56:00
5:03 AM,68.0,64.4,88,29.85,6.0,SSE,6.9,-,0.00,Rain,Light Rain,160,2013-06-10 09:03:00
5:39 AM,66.2,64.4,94,29.84,5.0,SSE,8.1,-,0.03,Rain,Light Rain,150,2013-06-10 09:39:00
5:46 AM,66.2,66.2,100,29.84,5.0,SE,8.1,-,0.04,Rain,Rain,140,2013-06-10 09:46:00
5:56 AM,66.9,66.0,97,29.83,5.0,SSE,9.2,-,0.06,Rain,Light Rain,150,2013-06-10 09:56:00
6:05 AM,66.2,66.2,100,29.85,4.0,SSE,6.9,-,0.01,Rain,Light Rain,160,2013-06-10 10:05:00
6:13 AM,66.2,66.2,100,29.84,5.0,SSE,6.9,-,0.02,Rain,Light Rain,160,2013-06-10 10:13:00
6:37 AM,66.2,66.2,100,29.85,8.0,SSE,5.8,-,0.02,Rain,Light Rain,160,2013-06-10 10:37:00
6:56 AM,66.9,64.9,93,29.83,7.0,South,5.8,-,0.04,Rain,Light Rain,170,2013-06-10 10:56:00
7:08 AM,66.2,64.4,94,29.85,6.0,South,6.9,-,0.00,Rain,Light Rain,170,2013-06-10 11:08:00
7:48 AM,66.2,64.4,94,29.85,8.0,South,6.9,-,0.04,Rain,Light Rain,180,2013-06-10 11:48:00
7:56 AM,66.9,64.9,93,29.83,6.0,South,8.1,-,0.05,Rain,Light Rain,170,2013-06-10 11:56:00
8:11 AM,66.2,64.4,94,29.85,5.0,South,6.9,-,0.02,Rain,Light Rain,180,2013-06-10 12:11:00
8:22 AM,66.2,64.4,94,29.84,5.0,South,6.9,-,0.03,Rain,Light Rain,170,2013-06-10 12:22:00
8:45 AM,66.2,64.4,94,29.86,6.0,South,10.4,-,0.06,Rain,Light Rain,190,2013-06-10 12:45:00
8:56 AM,66.0,64.9,96,29.83,8.0,South,6.9,-,0.06,Rain,Light Rain,180,2013-06-10 12:56:00
9:28 AM,66.2,64.4,94,29.85,10.0,South,8.1,-,0.00,,Overcast,190,2013-06-10 13:28:00
9:56 AM,66.0,64.0,93,29.83,10.0,South,8.1,-,0.00,,Overcast,190,2013-06-10 13:56:00
10:25 AM,66.2,64.4,94,29.85,10.0,SSW,9.2,-,N/A,,Overcast,200,2013-06-10 14:25:00
10:56 AM,66.9,64.9,93,29.83,10.0,SSW,10.4,-,0.01,,Overcast,200,2013-06-10 14:56:00
11:56 AM,69.1,64.9,87,29.83,10.0,SSW,11.5,-,0.02,,Overcast,210,2013-06-10 15:56:00
12:38 PM,73.4,66.2,78,29.84,10.0,SW,11.5,-,N/A,,Mostly Cloudy,230,2013-06-10 16:38:00
12:44 PM,71.6,64.4,78,29.84,10.0,SW,11.5,-,N/A,,Mostly Cloudy,220,2013-06-10 16:44:00
12:56 PM,73.9,64.9,73,29.82,10.0,SW,10.4,-,N/A,,Mostly Cloudy,220,2013-06-10 16:56:00
1:49 PM,75.2,62.6,65,29.83,10.0,WSW,12.7,19.6,N/A,,Mostly Cloudy,250,2013-06-10 17:49:00
1:56 PM,75.9,61.0,60,29.81,10.0,SW,16.1,21.9,N/A,,Mostly Cloudy,230,2013-06-10 17:56:00
2:56 PM,79.0,62.1,56,29.79,10.0,WSW,9.2,-,N/A,,Mostly Cloudy,240,2013-06-10 18:56:00
3:56 PM,73.9,61.0,64,29.80,10.0,WSW,12.7,-,0.00,Rain,Light Rain,250,2013-06-10 19:56:00
4:56 PM,73.0,60.1,64,29.80,10.0,SSW,13.8,-,0.00,,Mostly Cloudy,210,2013-06-10 20:56:00
5:56 PM,73.4,60.8,65,29.81,10.0,SW,13.8,19.6,N/A,,Mostly Cloudy,230,2013-06-10 21:56:00
6:56 PM,71.1,61.0,70,29.81,10.0,WSW,9.2,-,N/A,,Overcast,250,2013-06-10 22:56:00
7:56 PM,71.1,63.0,75,29.81,10.0,WSW,9.2,-,0.00,,Mostly Cloudy,240,2013-06-10 23:56:00
8:56 PM,68.0,63.0,84,29.82,10.0,SW,9.2,-,N/A,,Scattered Clouds,220,2013-06-11 00:56:00
9:56 PM,66.9,63.0,87,29.83,10.0,SW,8.1,-,N/A,,Scattered Clouds,230,2013-06-11 01:56:00
10:56 PM,66.0,63.0,90,29.85,10.0,WSW,9.2,-,N/A,,Partly Cloudy,240,2013-06-11 02:56:00
11:56 PM,66.9,63.0,87,29.85,10.0,WSW,8.1,-,N/A,,Mostly Cloudy,240,2013-06-11 03:56:00